VOE77AJ LIPX-LICC

Flight info

Callsign VOE77AJ
Flight time 1h 24m
Altitude 19000
Route ITEFE T558 LUMAV/N0449F370 DCT RITEB DCT UNIXO DCT DORAS DCT BEKIV DCT ENEPA/N0389F190 M871 LIBRO
Aircraft A320/M-SDE3FGHIRWY/LB1

Departure

Time 2026-05-09 16:45
Airport Verona Villafranca Valerio Catullo Airport (LIPX)

Arrival

Time 2026-05-09 18:09
Airport Catania-Fontanarossa Airport (LICC)
Time Latitude Longitude Altitude Speed Heading
2026-05-09 16:33 45.40348 10.90456 242 ft 0 kts 135°
2026-05-09 16:42 45.40370 10.90581 242 ft 8 kts 45°
2026-05-09 16:42 45.40414 10.90645 242 ft 12 kts 45°
2026-05-09 16:42 45.40473 10.90731 242 ft 12 kts 46°
2026-05-09 16:42 45.40534 10.90729 242 ft 10 kts 316°
2026-05-09 16:43 45.40583 10.90665 242 ft 9 kts 320°
2026-05-09 16:43 45.40628 10.90625 244 ft 7 kts 308°
2026-05-09 16:43 45.40634 10.90555 246 ft 8 kts 257°
2026-05-09 16:43 45.40614 10.90463 247 ft 13 kts 257°
2026-05-09 16:44 45.40586 10.90339 247 ft 13 kts 235°
2026-05-09 16:44 45.40481 10.90175 246 ft 44 kts 229°
2026-05-09 16:44 45.40088 10.89598 245 ft 114 kts 225°
2026-05-09 16:44 45.39392 10.88595 265 ft 166 kts 226°
2026-05-09 16:45 45.38586 10.87412 901 ft 168 kts 226°
2026-05-09 16:45 45.37962 10.85983 1515 ft 178 kts 250°
2026-05-09 16:45 45.37511 10.84228 1928 ft 200 kts 250°
2026-05-09 16:45 45.37000 10.82253 2342 ft 225 kts 250°
2026-05-09 16:46 45.36431 10.80060 2867 ft 249 kts 250°
2026-05-09 16:46 45.35809 10.77668 3617 ft 263 kts 250°
2026-05-09 16:46 45.35002 10.75316 4616 ft 269 kts 233°
2026-05-09 16:46 45.33603 10.73551 5636 ft 272 kts 209°
2026-05-09 16:47 45.31797 10.72721 6639 ft 276 kts 186°
2026-05-09 16:47 45.29886 10.72974 7637 ft 280 kts 162°
2026-05-09 16:47 45.28176 10.74306 8564 ft 285 kts 138°
2026-05-09 16:47 45.26992 10.76572 9480 ft 290 kts 115°
2026-05-09 16:48 45.26168 10.79210 10355 ft 298 kts 114°
2026-05-09 16:48 45.25313 10.82014 10751 ft 321 kts 114°
2026-05-09 16:48 45.24395 10.85025 11079 ft 344 kts 114°
2026-05-09 16:48 45.23419 10.88208 11623 ft 358 kts 114°
2026-05-09 16:49 45.22459 10.91250 12343 ft 363 kts 117°
2026-05-09 16:49 45.20963 10.94145 13104 ft 368 kts 136°
2026-05-09 16:49 45.18854 10.96204 13847 ft 371 kts 156°
2026-05-09 16:50 45.14740 10.98074 15081 ft 377 kts 165°
2026-05-09 16:50 45.12172 10.99147 15802 ft 381 kts 165°
2026-05-09 16:50 45.09649 11.00197 16481 ft 386 kts 165°
2026-05-09 16:50 45.07024 11.01297 17162 ft 390 kts 165°
2026-05-09 16:51 45.04413 11.02430 17822 ft 395 kts 163°
2026-05-09 16:51 45.01836 11.03669 18460 ft 399 kts 162°
2026-05-09 16:51 44.99197 11.05026 19098 ft 403 kts 161°
2026-05-09 16:51 44.96565 11.06418 19726 ft 407 kts 161°
2026-05-09 16:52 44.93901 11.07824 20332 ft 411 kts 161°
2026-05-09 16:52 44.91203 11.09233 20912 ft 416 kts 161°
2026-05-09 16:52 44.88470 11.10638 21477 ft 419 kts 162°
2026-05-09 16:52 44.85715 11.12035 22012 ft 423 kts 162°
2026-05-09 16:53 44.82930 11.13436 22538 ft 427 kts 162°
2026-05-09 16:53 44.80122 11.14840 23047 ft 430 kts 162°
2026-05-09 16:53 44.77283 11.16257 23531 ft 434 kts 162°
2026-05-09 16:53 44.74426 11.17683 24035 ft 438 kts 162°
2026-05-09 16:54 44.71544 11.19127 24511 ft 441 kts 162°
2026-05-09 16:54 44.68649 11.20581 24966 ft 444 kts 162°
2026-05-09 16:54 44.65727 11.22047 25410 ft 447 kts 163°
2026-05-09 16:54 44.62789 11.23516 25846 ft 450 kts 163°
2026-05-09 16:55 44.59828 11.24993 26262 ft 453 kts 163°
2026-05-09 16:55 44.56854 11.26472 26680 ft 455 kts 163°
2026-05-09 16:55 44.53857 11.27958 27084 ft 458 kts 163°
2026-05-09 16:55 44.50840 11.29450 27555 ft 461 kts 163°
2026-05-09 16:56 44.47803 11.30946 28020 ft 464 kts 163°
2026-05-09 16:56 44.44746 11.32447 28487 ft 467 kts 164°
2026-05-09 16:56 44.41663 11.33963 28946 ft 470 kts 164°
2026-05-09 16:56 44.38567 11.35491 29343 ft 474 kts 164°
2026-05-09 16:57 44.35490 11.37007 29775 ft 477 kts 164°
2026-05-09 16:57 44.32365 11.38542 30299 ft 476 kts 164°
2026-05-09 16:57 44.29247 11.40075 30897 ft 473 kts 164°
2026-05-09 16:57 44.26147 11.41607 31296 ft 472 kts 164°
2026-05-09 16:58 44.23055 11.43143 31686 ft 471 kts 164°
2026-05-09 16:58 44.19972 11.44670 32054 ft 470 kts 164°
2026-05-09 16:58 44.16895 11.46190 32408 ft 468 kts 165°
2026-05-09 16:58 44.13826 11.47700 32765 ft 467 kts 165°
2026-05-09 16:59 44.10765 11.49201 33130 ft 466 kts 165°
2026-05-09 16:59 44.07713 11.50689 33472 ft 464 kts 165°
2026-05-09 16:59 44.04668 11.52171 33784 ft 463 kts 165°
2026-05-09 16:59 44.01628 11.53646 34184 ft 462 kts 165°
2026-05-09 17:00 43.98593 11.55115 34659 ft 461 kts 165°
2026-05-09 17:00 43.95571 11.56580 35026 ft 460 kts 165°
2026-05-09 17:00 43.92554 11.58039 35436 ft 458 kts 165°
2026-05-09 17:00 43.89549 11.59491 35842 ft 458 kts 165°
2026-05-09 17:01 43.86547 11.60944 36224 ft 457 kts 165°
2026-05-09 17:01 43.83538 11.62401 36584 ft 456 kts 165°
2026-05-09 17:01 43.80546 11.63851 36856 ft 455 kts 165°
2026-05-09 17:01 43.77565 11.65295 36996 ft 452 kts 165°
2026-05-09 17:02 43.74605 11.66729 37018 ft 450 kts 165°
2026-05-09 17:02 43.68716 11.69574 37018 ft 449 kts 165°
2026-05-09 17:03 43.62816 11.72401 37017 ft 448 kts 165°
2026-05-09 17:05 43.39264 11.83665 37020 ft 448 kts 165°
2026-05-09 17:05 43.33381 11.86477 37013 ft 447 kts 165°
2026-05-09 17:06 43.27553 11.89254 37016 ft 447 kts 165°
2026-05-09 17:06 43.21676 11.92041 37021 ft 447 kts 165°
2026-05-09 17:07 43.15798 11.94819 37024 ft 447 kts 165°
2026-05-09 17:07 43.09918 11.97601 37030 ft 447 kts 165°
2026-05-09 17:08 43.04029 12.00369 37027 ft 448 kts 165°
2026-05-09 17:08 42.95186 12.04519 37021 ft 449 kts 165°
2026-05-09 17:09 42.89284 12.07296 37024 ft 449 kts 165°
2026-05-09 17:09 42.83370 12.10065 37027 ft 449 kts 165°
2026-05-09 17:10 42.77449 12.12823 37037 ft 450 kts 165°
2026-05-09 17:10 42.71533 12.15581 37039 ft 449 kts 165°
2026-05-09 17:11 42.65549 12.17569 37039 ft 445 kts 173°
2026-05-09 17:11 42.59477 12.19242 37045 ft 446 kts 173°
2026-05-09 17:12 42.53406 12.20909 37049 ft 445 kts 173°
2026-05-09 17:12 42.47330 12.22595 37048 ft 445 kts 172°
2026-05-09 17:13 42.41258 12.24269 37055 ft 445 kts 173°
2026-05-09 17:13 42.35185 12.25937 37057 ft 445 kts 172°
2026-05-09 17:14 42.29117 12.27603 37060 ft 445 kts 173°
2026-05-09 17:14 42.23036 12.29267 37057 ft 446 kts 173°
2026-05-09 17:15 42.16967 12.30925 37056 ft 446 kts 173°
2026-05-09 17:15 42.10890 12.32584 37052 ft 445 kts 173°
2026-05-09 17:17 41.86580 12.39181 37047 ft 446 kts 172°
2026-05-09 17:18 41.80542 12.40813 37051 ft 446 kts 173°
2026-05-09 17:18 41.74420 12.42459 37055 ft 446 kts 173°
2026-05-09 17:19 41.68377 12.44090 37058 ft 446 kts 173°
2026-05-09 17:19 41.62263 12.45739 37062 ft 446 kts 173°
2026-05-09 17:20 41.56187 12.47373 37054 ft 444 kts 173°
2026-05-09 17:20 41.50119 12.48984 37054 ft 445 kts 173°
2026-05-09 17:21 41.44052 12.50596 37053 ft 445 kts 173°
2026-05-09 17:21 41.37984 12.52221 37052 ft 445 kts 173°
2026-05-09 17:22 41.31910 12.53849 37054 ft 445 kts 173°
2026-05-09 17:22 41.25827 12.55459 37060 ft 445 kts 173°
2026-05-09 17:23 41.19789 12.57046 37054 ft 445 kts 173°
2026-05-09 17:23 41.13708 12.58651 37056 ft 446 kts 173°
2026-05-09 17:25 40.95443 12.63467 37054 ft 446 kts 173°
2026-05-09 17:25 40.89351 12.65065 37057 ft 446 kts 173°
2026-05-09 17:26 40.83260 12.66654 37057 ft 446 kts 173°
2026-05-09 17:26 40.77172 12.68262 37056 ft 446 kts 172°
2026-05-09 17:27 40.71108 12.70113 37055 ft 448 kts 169°
2026-05-09 17:27 40.65074 12.72171 37052 ft 448 kts 169°
2026-05-09 17:28 40.59037 12.74216 37050 ft 448 kts 169°
2026-05-09 17:28 40.52993 12.76190 37049 ft 447 kts 170°
2026-05-09 17:29 40.46950 12.78143 37046 ft 447 kts 170°
2026-05-09 17:29 40.40902 12.80098 37036 ft 448 kts 170°
2026-05-09 17:30 40.34851 12.82047 37043 ft 448 kts 170°
2026-05-09 17:30 40.28797 12.83995 37041 ft 448 kts 170°
2026-05-09 17:31 40.22740 12.85953 37043 ft 448 kts 170°
2026-05-09 17:32 40.07654 12.90791 37037 ft 448 kts 170°
2026-05-09 17:33 40.01604 12.92727 37031 ft 448 kts 170°
2026-05-09 17:33 39.95549 12.94668 37023 ft 448 kts 170°
2026-05-09 17:34 39.89503 12.96607 37021 ft 448 kts 170°
2026-05-09 17:35 39.68298 13.03337 37018 ft 448 kts 170°
2026-05-09 17:36 39.62236 13.05256 37019 ft 449 kts 170°
2026-05-09 17:36 39.56180 13.07229 37018 ft 449 kts 168°
2026-05-09 17:37 39.51170 13.09045 37016 ft 450 kts 168°
2026-05-09 17:37 39.45154 13.11305 37020 ft 450 kts 168°
2026-05-09 17:38 39.39130 13.13516 37024 ft 450 kts 168°
2026-05-09 17:39 39.30081 13.16750 37030 ft 450 kts 168°
2026-05-09 17:39 39.24054 13.18910 37023 ft 450 kts 168°
2026-05-09 17:40 39.18020 13.21073 37022 ft 450 kts 168°
2026-05-09 17:40 39.11989 13.23227 37021 ft 450 kts 168°
2026-05-09 17:41 39.05957 13.25368 37021 ft 450 kts 168°
2026-05-09 17:41 38.99924 13.27519 37021 ft 450 kts 168°
2026-05-09 17:42 38.93891 13.29674 37019 ft 450 kts 168°
2026-05-09 17:42 38.87856 13.31822 37014 ft 450 kts 168°
2026-05-09 17:43 38.81860 13.33944 37013 ft 450 kts 168°
2026-05-09 17:43 38.75783 13.36083 37012 ft 450 kts 168°
2026-05-09 17:44 38.69785 13.38198 37010 ft 450 kts 168°
2026-05-09 17:44 38.63780 13.40322 37011 ft 450 kts 168°
2026-05-09 17:45 38.57738 13.42452 37006 ft 450 kts 168°
2026-05-09 17:45 38.51689 13.44569 37004 ft 451 kts 168°
2026-05-09 17:46 38.45643 13.46687 37002 ft 451 kts 168°
2026-05-09 17:46 38.39598 13.48809 37000 ft 451 kts 168°
2026-05-09 17:46 38.36579 13.49867 36571 ft 449 kts 168°
2026-05-09 17:47 38.33567 13.50952 35804 ft 451 kts 164°
2026-05-09 17:47 38.30723 13.52697 34961 ft 460 kts 148°
2026-05-09 17:47 38.28287 13.55397 34004 ft 470 kts 135°
2026-05-09 17:47 38.26053 13.58476 32979 ft 476 kts 135°
2026-05-09 17:48 38.23817 13.61602 31989 ft 479 kts 134°
2026-05-09 17:48 38.21576 13.64754 31015 ft 480 kts 134°
2026-05-09 17:48 38.19334 13.67905 30028 ft 481 kts 134°
2026-05-09 17:48 38.17080 13.71055 28982 ft 481 kts 134°
2026-05-09 17:49 38.14820 13.74200 27856 ft 483 kts 134°
2026-05-09 17:49 38.12562 13.77337 27045 ft 478 kts 134°
2026-05-09 17:49 38.10332 13.80431 26243 ft 472 kts 134°
2026-05-09 17:49 38.08121 13.83490 25453 ft 468 kts 134°
2026-05-09 17:50 38.05931 13.86511 24683 ft 463 kts 134°
2026-05-09 17:50 38.01615 13.92457 23193 ft 454 kts 134°
2026-05-09 17:50 37.99488 13.95387 22483 ft 449 kts 134°
2026-05-09 17:51 37.97386 13.98286 21828 ft 445 kts 134°
2026-05-09 17:51 37.95305 14.01161 21158 ft 440 kts 134°
2026-05-09 17:51 37.93244 14.04005 20496 ft 437 kts 134°
2026-05-09 17:51 37.91197 14.06821 19880 ft 432 kts 134°
2026-05-09 17:52 37.89171 14.09602 19269 ft 428 kts 134°
2026-05-09 17:52 37.87166 14.12350 18663 ft 424 kts 134°
2026-05-09 17:52 37.85172 14.15082 18059 ft 420 kts 134°
2026-05-09 17:52 37.83202 14.17778 17487 ft 416 kts 134°
2026-05-09 17:53 37.81241 14.20458 16907 ft 413 kts 134°
2026-05-09 17:53 37.79297 14.23111 16328 ft 410 kts 134°
2026-05-09 17:53 37.77365 14.25745 15740 ft 407 kts 134°
2026-05-09 17:53 37.75446 14.28361 15153 ft 404 kts 134°
2026-05-09 17:54 37.73710 14.30728 14606 ft 401 kts 134°
2026-05-09 17:54 37.72485 14.32399 14237 ft 399 kts 134°
2026-05-09 17:54 37.70609 14.34961 13653 ft 396 kts 134°
2026-05-09 17:54 37.68748 14.37502 13064 ft 392 kts 134°
2026-05-09 17:55 37.66897 14.40016 12450 ft 389 kts 134°
2026-05-09 17:55 37.65061 14.42508 11861 ft 386 kts 133°
2026-05-09 17:55 37.63531 14.45197 11698 ft 371 kts 117°
2026-05-09 17:55 37.62666 14.48169 11578 ft 354 kts 101°
2026-05-09 17:56 37.62467 14.51190 11450 ft 338 kts 85°
2026-05-09 17:56 37.62671 14.54094 11329 ft 326 kts 83°
2026-05-09 17:56 37.62866 14.56883 11205 ft 314 kts 84°
2026-05-09 17:57 37.63219 14.62198 10955 ft 294 kts 84°
2026-05-09 17:57 37.63386 14.64691 10829 ft 284 kts 84°
2026-05-09 17:57 37.63551 14.67133 10650 ft 276 kts 84°
2026-05-09 17:57 37.63678 14.69569 10368 ft 274 kts 92°
2026-05-09 17:58 37.63173 14.71840 10071 ft 270 kts 122°
2026-05-09 17:58 37.61895 14.73512 9734 ft 264 kts 152°
2026-05-09 17:58 37.60213 14.74230 9394 ft 258 kts 175°
2026-05-09 17:58 37.58431 14.74511 9025 ft 258 kts 175°
2026-05-09 17:59 37.56645 14.74699 8665 ft 255 kts 188°
2026-05-09 17:59 37.55050 14.73980 8520 ft 238 kts 218°
2026-05-09 17:59 37.54009 14.72472 8336 ft 225 kts 246°
2026-05-09 17:59 37.53642 14.70590 8016 ft 222 kts 264°
2026-05-09 18:00 37.53478 14.68660 7659 ft 221 kts 264°
2026-05-09 18:00 37.53315 14.66734 7321 ft 221 kts 264°
2026-05-09 18:00 37.53142 14.64816 6984 ft 220 kts 260°
2026-05-09 18:00 37.52557 14.63059 6650 ft 220 kts 232°
2026-05-09 18:01 37.51375 14.61872 6316 ft 220 kts 203°
2026-05-09 18:01 37.49867 14.61567 5968 ft 223 kts 173°
2026-05-09 18:01 37.48421 14.62226 5622 ft 224 kts 150°
2026-05-09 18:01 37.47074 14.63220 5291 ft 224 kts 150°
2026-05-09 18:02 37.45734 14.64200 5033 ft 221 kts 150°
2026-05-09 18:02 37.44480 14.65304 4988 ft 222 kts 133°
2026-05-09 18:02 37.43650 14.66925 4863 ft 220 kts 109°
2026-05-09 18:02 37.43428 14.68804 4537 ft 218 kts 86°
2026-05-09 18:03 37.43573 14.70697 4215 ft 217 kts 83°
2026-05-09 18:03 37.43750 14.72572 3905 ft 216 kts 83°
2026-05-09 18:03 37.43917 14.74443 3599 ft 215 kts 83°
2026-05-09 18:03 37.44079 14.76307 3291 ft 214 kts 84°
2026-05-09 18:04 37.44240 14.78162 3042 ft 212 kts 84°
2026-05-09 18:04 37.44399 14.80002 2989 ft 211 kts 84°
2026-05-09 18:04 37.44558 14.81837 2991 ft 209 kts 84°
2026-05-09 18:04 37.44711 14.83592 2984 ft 197 kts 84°
2026-05-09 18:05 37.44856 14.85283 2984 ft 192 kts 84°
2026-05-09 18:05 37.45000 14.86953 2864 ft 191 kts 84°
2026-05-09 18:05 37.45143 14.88607 2669 ft 188 kts 84°
2026-05-09 18:05 37.45279 14.90198 2425 ft 184 kts 84°
2026-05-09 18:06 37.45414 14.91774 2170 ft 177 kts 84°
2026-05-09 18:06 37.45541 14.93263 1942 ft 166 kts 84°
2026-05-09 18:06 37.45660 14.94648 1740 ft 151 kts 84°
2026-05-09 18:06 37.45766 14.95903 1541 ft 139 kts 83°
2026-05-09 18:07 37.45868 14.97089 1368 ft 134 kts 84°
2026-05-09 18:07 37.45967 14.98246 1162 ft 132 kts 83°
2026-05-09 18:07 37.46065 14.99405 991 ft 131 kts 83°
2026-05-09 18:07 37.46162 15.00547 827 ft 131 kts 83°
2026-05-09 18:08 37.46258 15.01676 656 ft 132 kts 84°
2026-05-09 18:08 37.46354 15.02826 478 ft 131 kts 83°
2026-05-09 18:08 37.46450 15.03962 297 ft 130 kts 83°
2026-05-09 18:08 37.46549 15.05085 119 ft 128 kts 82°
2026-05-09 18:09 37.46638 15.06161 35 ft 111 kts 84°
2026-05-09 18:09 37.46703 15.06915 36 ft 62 kts 84°
2026-05-09 18:09 37.46743 15.07395 37 ft 48 kts 84°
2026-05-09 18:09 37.46819 15.07711 36 ft 28 kts 50°
2026-05-09 18:10 37.46903 15.07810 33 ft 7 kts
2026-05-09 18:10 37.46929 15.07789 33 ft 7 kts 310°
2026-05-09 18:10 37.46934 15.07713 33 ft 8 kts 265°
2026-05-09 18:10 37.46927 15.07626 33 ft 13 kts 263°
2026-05-09 18:11 37.46915 15.07493 32 ft 18 kts 263°
2026-05-09 18:11 37.46900 15.07311 32 ft 24 kts 264°
2026-05-09 18:11 37.46881 15.07083 32 ft 29 kts 264°
2026-05-09 18:11 37.46862 15.06834 32 ft 29 kts 262°
2026-05-09 18:12 37.46839 15.06582 32 ft 29 kts 264°
2026-05-09 18:12 37.46819 15.06337 32 ft 28 kts 264°
2026-05-09 18:12 37.46798 15.06094 32 ft 25 kts 265°
2026-05-09 18:12 37.46791 15.05954 32 ft 6 kts 292°
2026-05-09 18:13 37.46830 15.05942 32 ft 6 kts 356°
2026-05-09 18:13 37.46860 15.05937 32 ft 1 kts 354°
2026-05-09 18:13 37.46861 15.05937 32 ft 0 kts 354°